User: anonymous   Login
Location: Vancouver
(49.2500°N, 123.1330°W)
Time: 10:09:18
(UTC-08:00)
Language:

Cosmos 1408 Rocket - Orbit

View from above orbital plane
View from above orbital plane
View from above satellite
View from above satellite

Ground track
Ground track

The orbit data is extracted from the following two-line orbital elements,

1 13553U 82092B   17055.89349400  .00000113  00000-0  10503-4 0  9991
2 13553  82.5717 338.7037 0022787  58.1552   6.9685 14.84106725860389
Epoch (UTC): 24 February 2017 21:26:37
Eccentricity: 0.0022787
inclination: 82.5717°
perigee height: 600 km
apogee height: 632 km
right ascension of ascending node: 338.7037°
argument of perigee: 58.1552°
revolutions per day: 14.84106725
mean anomaly at epoch: 6.9685°
orbit number at epoch: 86038

The dashed part of the orbit path shows where the satellite is in the earth's shadow,  

DLR